Weather reports worldwide

Advertisment
Santander, Spain (8023): temperature & dewpoint: 01.08.2020 03:00:00 - 07.08.2020 03:00:00 (CEST)Santander, Spain (8023): wind speed: 01.08.2020 03:00:00 - 07.08.2020 03:00:00 (CEST)Santander, Spain (8023): wind direction: 01.08.2020 03:00:00 - 07.08.2020 03:00:00 (CEST)Santander, Spain (8023): reduced air pressure: 01.08.2020 03:00:00 - 07.08.2020 03:00:00 (CEST)Santander, Spain (8023): visibility: 01.08.2020 03:00:00 - 07.08.2020 03:00:00 (CEST)Santander, Spain (8023): precipitation: 01.08.2020 03:00:00 - 07.08.2020 03:00:00 (CEST)
Date & Time tt [°C] td [°C] ff [km/h] ff [kn] dd ppp [hPa] vv [km] rr [mm]
07.08.2020 03:00:00 21,2 20,9 37 20 W 1013,0 4,7 0,0
07.08.2020 02:00:00 21,9 19,1 16 9 W 1012,7 20 -
07.08.2020 01:00:00 22,0 20,1 8 4 E 1012,3 8 0,0
07.08.2020 00:00:00 22,5 20,0 11 6 E 1012,5 9 0,0
06.08.2020 23:00:00 22,7 18,9 13 7 E 1012,5 20 -
06.08.2020 22:00:00 23,1 19,1 18 10 E 1012,1 11 0,0
06.08.2020 21:00:00 23,2 19,6 21 11 E 1011,9 10 0,0
06.08.2020 20:00:00 23,5 20,2 21 11 E 1011,6 15 -
06.08.2020 19:00:00 24,1 20,4 21 11 E 1011,6 12 0,0
06.08.2020 18:00:00 24,2 20,7 22 12 E 1011,6 12 0,0
06.08.2020 17:00:00 24,4 20,5 24 13 E 1011,7 20 -
06.08.2020 16:00:00 24,4 19,7 24 13 E 1012,1 13 0,0
06.08.2020 15:00:00 24,7 19,5 22 12 E 1012,4 14 0,0
06.08.2020 14:00:00 24,6 19,4 22 12 E 1012,5 15 -
06.08.2020 13:00:00 24,0 19,5 22 12 E 1012,8 15 0,0
06.08.2020 12:00:00 23,6 18,7 21 11 E 1013,2 15 0,0
06.08.2020 11:00:00 23,0 17,2 18 10 E 1013,6 20 -
06.08.2020 10:00:00 22,2 16,2 15 8 E 1013,8 18 0,0
06.08.2020 09:00:00 21,1 16,7 11 6 SE 1013,9 19 0,0
06.08.2020 08:00:00 19,0 16,6 13 7 ESE 1014,0 15 -
06.08.2020 07:00:00 17,3 15,8 13 7 ESE 1014,2 11 0,0
06.08.2020 06:00:00 18,4 16,4 8 4 SE 1014,2 13 0,0
06.08.2020 05:00:00 18,4 16,7 4 2 ESE 1014,4 13 -
06.08.2020 04:00:00 18,9 16,9 11 6 SE 1014,6 13 0,0
06.08.2020 03:00:00 19,3 16,9 9 5 SSE 1015,0 14 0,0
06.08.2020 02:00:00 19,5 17,3 11 6 SE 1015,2 15 -
06.08.2020 01:00:00 19,5 17,3 13 7 SSE 1015,3 14 0,0
06.08.2020 00:00:00 19,7 17,3 13 7 SE 1015,3 12 0,0
05.08.2020 23:00:00 20,3 17,3 15 8 ESE 1015,3 15 -
05.08.2020 22:00:00 20,9 17,5 16 9 ESE 1014,7 15 0,0
05.08.2020 21:00:00 21,7 18,1 16 9 E 1014,2 15 0,0
05.08.2020 20:00:00 22,4 18,4 16 9 E 1013,7 20 -
05.08.2020 19:00:00 23,0 18,3 16 9 E 1013,6 18 0,0
05.08.2020 18:00:00 23,8 18,9 15 8 E 1013,7 18 0,0
05.08.2020 17:00:00 24,3 18,5 16 9 E 1013,8 20 -
05.08.2020 16:00:00 24,6 18,1 16 9 ENE 1013,9 19 0,0
05.08.2020 15:00:00 24,5 18,0 18 10 ENE 1013,8 19 0,0
05.08.2020 14:00:00 23,9 17,6 22 12 E 1013,8 25 -
05.08.2020 13:00:00 23,2 17,6 28 15 E 1013,9 19 0,0
05.08.2020 12:00:00 22,9 17,1 24 13 E 1014,3 19 0,0
05.08.2020 11:00:00 23,5 14,8 11 6 E 1014,3 30 -
05.08.2020 10:00:00 22,5 14,9 11 6 ESE 1014,4 19 0,0
05.08.2020 09:00:00 20,2 14,6 16 9 SE 1014,2 20 0,0
05.08.2020 08:00:00 18,2 14,5 15 8 SE 1014,2 25 -
05.08.2020 07:00:00 17,2 14,5 13 7 ESE 1014,3 15 0,0
05.08.2020 06:00:00 17,2 14,7 15 8 ESE 1014,5 15 0,0
05.08.2020 05:00:00 17,3 14,9 18 10 SE 1015,0 15 -
05.08.2020 04:00:00 17,9 15,3 18 10 ESE 1015,4 14 0,0
05.08.2020 03:00:00 18,6 16,0 16 9 ESE 1015,9 14 0,0
05.08.2020 02:00:00 18,4 16,7 15 8 ESE 1016,4 15 -
05.08.2020 01:00:00 18,7 16,8 11 6 SE 1016,7 13 0,0
05.08.2020 00:00:00 19,5 17,1 15 8 E 1016,9 13 0,0
04.08.2020 23:00:00 19,8 17,4 16 9 E 1017,1 20 -
04.08.2020 22:00:00 20,2 17,4 21 11 E 1016,8 15 0,0
04.08.2020 21:00:00 21,1 17,9 28 15 E 1017,1 16 0,0
04.08.2020 20:00:00 21,9 17,7 28 15 E 1016,9 20 -
04.08.2020 19:00:00 22,4 16,7 26 14 ENE 1017,1 20 0,0
04.08.2020 18:00:00 23,0 17,0 24 13 ENE 1017,7 20 0,0
04.08.2020 17:00:00 23,2 17,0 24 13 ENE 1018,3 25 -
04.08.2020 16:00:00 23,6 16,1 22 12 ENE 1018,6 20 0,0
04.08.2020 15:00:00 24,0 17,0 21 11 ENE 1019,0 20 0,0
04.08.2020 14:00:00 24,4 16,9 16 9 ENE 1019,3 25 -
04.08.2020 13:00:00 23,5 17,3 13 7 NE 1019,8 18 0,0
04.08.2020 12:00:00 23,8 16,6 9 5 ENE 1019,6 19 0,0
04.08.2020 11:00:00 23,5 16,3 9 5 ESE 1019,7 25 -
04.08.2020 10:00:00 20,7 16,7 11 6 SE 1019,7 20 0,0
04.08.2020 09:00:00 19,2 15,9 9 5 SE 1019,6 19 0,0
04.08.2020 08:00:00 18,6 14,7 4 2 S 1019,4 20 -
04.08.2020 07:00:00 18,5 14,4 8 4 SSW 1019,3 20 0,0
04.08.2020 06:00:00 18,5 14,6 9 5 SSW 1019,2 20 0,0
04.08.2020 05:00:00 18,3 14,8 9 5 SSW 1019,4 15 -
04.08.2020 04:00:00 18,2 14,7 9 5 S 1019,7 20 0,0
04.08.2020 03:00:00 18,3 14,8 9 5 SW 1020,3 20 0,0
04.08.2020 02:00:00 18,7 15,0 11 6 S 1020,2 15 -
04.08.2020 01:00:00 19,7 14,9 8 4 SSW 1020,5 20 0,0
04.08.2020 00:00:00 19,7 15,3 5 3 S 1020,2 19 0,0
03.08.2020 23:00:00 20,0 15,2 4 2 E 1020,2 20 -
03.08.2020 22:00:00 20,1 15,3 5 3 E 1019,6 20 0,0
03.08.2020 21:00:00 21,0 15,3 9 5 ENE 1019,3 19 0,0
03.08.2020 20:00:00 21,8 14,7 11 6 NE 1019,3 25 -
03.08.2020 19:00:00 22,2 15,1 11 6 NNE 1019,1 18 0,0
03.08.2020 18:00:00 22,5 15,1 11 6 NNE 1018,9 18 0,0
03.08.2020 17:00:00 22,8 15,6 13 7 NNE 1019,1 25 -
03.08.2020 16:00:00 22,4 14,8 15 8 NNE 1019,5 19 0,0
03.08.2020 15:00:00 22,5 14,9 13 7 NNE 1019,8 20 0,0
03.08.2020 14:00:00 22,2 15,3 11 6 N 1020,1 25 -
03.08.2020 13:00:00 21,9 16,0 11 6 N 1020,1 19 0,0
03.08.2020 12:00:00 21,8 15,4 8 4 NNW 1020,0 19 0,0
03.08.2020 11:00:00 21,3 15,4 8 4 NNW 1020,0 30 -
03.08.2020 10:00:00 21,5 15,8 8 4 W 1020,1 19 0,0
03.08.2020 09:00:00 20,9 16,1 5 3 WSW 1019,7 18 0,0
03.08.2020 08:00:00 18,1 15,7 9 5 SSW 1019,5 20 -
03.08.2020 07:00:00 18,0 15,4 9 5 SW 1019,8 19 0,0
03.08.2020 06:00:00 18,1 15,4 9 5 SW 1019,6 19 0,0
03.08.2020 05:00:00 18,4 15,3 8 4 SW 1019,7 20 -
03.08.2020 04:00:00 18,5 14,8 8 4 WSW 1020,0 19 0,0
03.08.2020 03:00:00 19,3 14,5 5 3 NNW 1020,4 18 0,0
03.08.2020 02:00:00 19,3 14,8 5 3 NNW 1020,6 19 -
03.08.2020 01:00:00 19,4 14,6 2 1 NE 1020,8 16 0,0
03.08.2020 00:00:00 19,8 15,4 11 6 N 1021,5 19 0,0
02.08.2020 23:00:00 19,9 15,5 11 6 N 1021,6 19 -
02.08.2020 22:00:00 19,9 15,9 13 7 N 1021,5 17 0,0
02.08.2020 21:00:00 20,2 16,2 15 8 N 1021,4 17 0,0
02.08.2020 20:00:00 20,5 16,7 18 10 N 1021,3 20 -
02.08.2020 19:00:00 20,9 16,1 16 9 NNW 1021,0 19 0,0
02.08.2020 18:00:00 21,1 16,5 15 8 NNW 1021,2 19 0,0
02.08.2020 17:00:00 21,7 17,9 16 9 W 1021,3 15 -
02.08.2020 16:00:00 21,6 17,2 21 11 W 1022,0 20 0,0
02.08.2020 15:00:00 21,6 17,6 21 11 W 1022,4 20 0,0
02.08.2020 14:00:00 20,3 17,3 21 11 W 1022,4 15 -
02.08.2020 13:00:00 19,2 17,7 18 10 W 1022,6 19 0,0
02.08.2020 12:00:00 19,7 17,5 16 9 W 1022,8 19 0,0
02.08.2020 11:00:00 19,1 17,8 11 6 SW 1022,6 15 -
02.08.2020 10:00:00 17,9 17,4 15 8 SSW 1022,3 18 0,0
02.08.2020 09:00:00 17,7 17,4 11 6 SSW 1022,1 8 0,2
02.08.2020 08:00:00 17,6 17,3 8 4 SSW 1022,1 7 -
02.08.2020 07:00:00 17,7 17,4 13 7 S 1022,0 7 0,2
02.08.2020 06:00:00 17,7 17,4 11 6 SSW 1021,7 8 0,6
02.08.2020 05:00:00 17,8 17,5 11 6 WSW 1021,7 10 -
02.08.2020 04:00:00 18,0 17,5 9 5 WSW 1021,7 2,8 0,6
02.08.2020 03:00:00 18,1 17,6 9 5 WSW 1022,2 17 0,0
02.08.2020 02:00:00 18,2 17,7 11 6 SSW 1022,7 15 -
02.08.2020 01:00:00 17,9 17,4 9 5 SW 1023,0 17 0,0
02.08.2020 00:00:00 18,3 17,3 13 7 WSW 1023,1 16 0,2
01.08.2020 23:00:00 18,6 17,4 13 7 W 1023,4 10 -
01.08.2020 22:00:00 19,9 18,2 13 7 WSW 1022,8 12 0,0
01.08.2020 21:00:00 21,0 16,6 15 8 NNW 1022,8 18 0,0
01.08.2020 20:00:00 21,2 17,0 13 7 NNW 1022,6 20 -
01.08.2020 19:00:00 21,5 17,9 16 9 N 1022,4 17 0,0
01.08.2020 18:00:00 21,1 19,0 13 7 W 1022,5 18 0,0
01.08.2020 17:00:00 21,2 18,0 8 4 NW 1022,4 15 -
01.08.2020 16:00:00 21,1 18,7 11 6 WNW 1022,4 18 0,0
01.08.2020 15:00:00 20,9 18,8 21 11 NW 1022,2 14 0,0
01.08.2020 14:00:00 21,7 19,1 24 13 NW 1022,1 20 -
01.08.2020 13:00:00 22,4 19,4 21 11 NW 1021,7 18 0,0
01.08.2020 12:00:00 21,8 19,5 18 10 W 1021,3 19 0,0
01.08.2020 11:00:00 21,1 18,7 18 10 W 1021,1 20 -
01.08.2020 10:00:00 21,1 17,9 15 8 W 1020,6 19 0,0
01.08.2020 09:00:00 20,1 16,3 13 7 WSW 1020,3 20 0,0
01.08.2020 08:00:00 19,1 16,1 13 7 WSW 1020,4 15 -
01.08.2020 07:00:00 19,1 16,3 11 6 SW 1020,3 16 0,0
01.08.2020 06:00:00 19,1 17,1 11 6 SW 1019,9 14 0,0
01.08.2020 05:00:00 19,0 17,5 11 6 SW 1019,7 12 -
01.08.2020 04:00:00 19,1 17,8 8 4 SW 1020,1 11 0,0
01.08.2020 03:00:00 19,2 17,9 9 5 WSW 1020,3 11 0,0

tt = temperature
td = dewpoint
ff = wind speed
dd = wind direction
ppp = reduced air pressure
vv = visibility
rr = precipitation

Next stations